[[{"header":{"parameterUnit":"m.s-1","parameterCategory":1,"la1":30.2991,"la2":30.254,"lo1":-89.0895,"lo2":-89.0444,"dy":0.0017,"dx":0.0017,"nx":28,"ny":28,"refTime":"2026-02-06T03:00:00:Z","depth":0,"parameterNumber":2,"parameterNumberName":"U-component_of_WINDS"},"data":[0,0,0,0,0,0,0,0,0,0,0,0,0,0,0,0,0,0,0,0,0,0,0,0,0,0,0,0,0,0,0,0,0,0,0,0,0,0,0,0,0,0,0,0,0,0,0,0,0,0,0,0,0,0,0,0,0,0,-2.9038,-2.9038,0,-2.9072,-2.9072,-2.9072,-2.8962,-2.8959,-2.8955,-2.8952,-2.899,-2.8994,-2.8998,0,0,0,0,0,0,0,0,0,0,0,0,0,-2.888,-2.8883,-2.9038,-2.9038,-2.9039,-2.9071,-2.9072,-2.9072,-2.8963,-2.8959,-2.8954,-2.8951,-2.8988,-2.8993,-2.8998,0,0,0,0,0,0,0,0,0,0,0,0,0,-2.8934,-2.8884,-2.9038,-2.8988,-2.8983,-2.9071,-2.9072,-2.9072,-2.8963,-2.8958,-2.8953,-2.8949,-2.8987,-2.8993,-2.8999,-2.9137,0,0,-2.9017,-2.902,0,0,0,0,0,0,0,0,-2.8932,-2.894,-2.8995,-2.8991,-2.8987,-2.9007,-2.903,-2.9094,-2.8965,-2.8971,-2.8952,-2.8946,-2.9,-2.9004,-2.9022,-2.9139,-2.914,-2.9018,-2.9022,-2.9024,-2.9026,0,0,0,0,0,0,0,-2.8928,-2.8938,-2.9051,-2.8996,-2.8991,-2.8964,-2.8966,-2.9041,-2.9013,-2.897,-2.8962,-2.8968,-2.8997,-2.9016,-2.9022,-2.9141,-2.9018,-2.9023,-2.9027,-2.903,-2.9373,-2.9378,0,0,0,0,0,0,-2.893,-2.8936,-2.905,-2.9052,-2.8946,-2.8971,-2.8973,-2.9006,-2.9012,-2.9008,-2.8972,-2.8962,-2.9008,-2.9015,-2.9023,-2.9186,-2.9024,-2.903,-2.9034,-2.9368,-2.9374,-2.938,0,0,0,0,0,0,-2.8927,-2.8942,-2.9049,-2.8992,-2.9003,-2.8979,-2.9016,-2.9009,-2.9029,-2.9013,-2.9008,-2.8997,-2.9004,-2.9014,-2.9109,-2.9186,-2.9033,-2.9039,-2.9361,-2.937,-2.9377,-2.9513,0,0,0,0,0,0,-2.8923,-2.8941,-2.8993,-2.8994,-2.9007,-2.9135,-2.9021,-2.9013,-2.9039,-2.9027,-2.9036,-2.9032,-2.9001,-2.9101,-2.9116,-2.9191,-2.9043,-2.9354,-2.9365,-2.9375,-2.9502,-2.9525,-2.9545,0,0,0,0,0,-2.8918,-2.9031,-2.8997,-2.9011,-2.9072,-2.9139,-2.9147,-2.9108,-2.9046,-2.9098,-2.9088,-2.9032,-2.9174,-2.9111,-2.9127,-2.9206,-2.935,-2.9362,-2.9374,-2.9492,-2.952,-2.9544,0,0,0,0,0,0,-2.9041,-2.903,-2.8992,-2.9108,-2.9125,-2.912,-2.9186,-2.9139,-2.9175,-2.9163,-2.9114,-2.9117,-2.9221,-2.9222,-2.9152,-2.934,-2.9251,-2.9267,-2.9336,-2.9363,-2.9384,-2.9382,-2.9048,0,0,0,0,0,-2.9081,-2.9137,-2.9124,-2.9228,-2.9238,-2.9211,-2.9239,-2.9207,-2.9224,-2.9231,-2.9228,-2.9246,-2.9295,-2.9328,-2.9372,-2.95,-2.9501,-2.9562,-2.9584,-2.9602,-2.9617,-2.9685,-2.9712,-2.942,-2.942,-2.942,0,0,-2.9166,-2.9167,-2.9205,-2.9253,-2.9262,-2.9322,-2.9218,-2.9285,-2.9328,-2.9241,-2.9331,-2.9329,-2.9347,-2.9459,-2.9508,-2.9464,-2.9697,-2.9617,-2.9631,-2.9637,-2.97,-2.9728,-2.9753,-2.9429,-2.9427,-2.9426,0,0,-2.9351,-2.9357,-2.9444,-2.9455,-2.9471,-2.9451,-2.9472,-2.9474,-2.947,-2.9558,-2.9494,-2.9545,-2.963,-2.9646,-2.9664,-2.9854,-2.9803,-2.9869,-2.9982,-3.0049,-3.0073,-3.0093,-3.0161,-3.0186,-2.9884,-2.9884,-2.9884,0,-2.9455,-2.9541,-2.9495,-2.9566,-2.9589,-2.9511,-2.96,-2.9613,-2.9643,-2.9661,-2.961,-2.9715,-2.9721,-2.9836,-2.9882,-2.9899,-2.9922,-2.9869,-3.0073,-3.0092,-3.0111,-3.0176,-3.0202,-2.9892,-2.9891,-2.989,-2.989,0,-2.9668,-2.9728,-2.9797,-2.9827,-2.9857,-2.9937,-2.9904,-2.994,-2.9905,-2.9892,-2.9983,-2.9987,-3.0031,-3.0055,-3.0023,-3.0166,-3.0138,-3.0081,-2.9991,-3.0147,-3.0208,-3.0232,-2.9904,-2.9901,-2.9898,-2.9896,0,0,-2.9934,-2.9935,-2.9962,-2.9974,-2.9985,-3.0031,-3.0107,-3.0148,-3.0181,-3.0204,-3.0267,-3.034,-3.0286,-3.0308,-3.0276,-3.0335,-3.0485,-3.027,-3.0269,-3.0311,-3.0645,-3.0689,-3.0719,-3.0451,-3.0455,-3.0459,-3.0644,0,-3.0116,-3.0246,-3.0206,-3.0337,-3.0393,-3.0319,-3.0385,-3.0399,-3.0388,-3.0433,-3.0421,-3.0474,-3.0399,-3.0411,-3.0466,-3.0456,-3.0552,-3.0441,-3.0511,-3.0514,-3.0511,-3.075,-3.0798,-3.0972,-3.0667,-3.0671,-3.0674,0,-3.0348,-3.0378,-3.0515,-3.0516,-3.0538,-3.0598,-3.0633,-3.0677,-3.0691,-3.0679,-3.0702,-3.0658,-3.0733,-3.0641,-3.0743,-3.0669,-3.0695,-3.0694,-3.07,-3.0706,-3.0605,-3.0765,-3.1026,-3.1053,-3.071,-3.0707,-3.0704,0,-3.053,-3.0605,-3.0696,-3.0709,-3.0712,-3.0756,-3.076,-3.0769,-3.0796,-3.0826,-3.0844,-3.0883,-3.0905,-3.0936,-3.0904,-3.0839,-3.1012,-3.0917,-3.1005,-3.1006,-3.1047,-3.1045,-3.1318,-3.106,-3.106,-3.1059,-3.1059,0,-3.0739,-3.0826,-3.0778,-3.0835,-3.093,-3.0883,-3.0978,-3.0973,-3.0982,-3.1036,-3.0974,-3.1027,-3.0979,-3.1028,-3.1002,-3.1092,-3.1102,-3.1095,-3.1088,-3.1102,-3.1103,-3.1119,-3.1107,-3.1066,-3.1065,-3.1063,-3.1062,0,-3.096,-3.0931,-3.1026,-3.102,-3.1021,-3.1091,-3.1087,-3.1139,-3.1122,-3.1192,-3.1205,-3.118,-3.1234,-3.1203,-3.1259,-3.1241,-3.1358,-3.1334,-3.1354,-3.1348,-3.1438,-3.1431,-3.1733,-3.177,-3.1487,-3.149,-3.1492,0,-3.1096,-3.1161,-3.1162,-3.1194,-3.1201,-3.1253,-3.128,-3.1236,-3.1268,-3.1288,-3.1338,-3.1386,-3.1422,-3.1512,-3.1499,-3.1541,-3.1517,-3.162,-3.1523,-3.1536,-3.1521,-3.1518,-3.1525,-3.1641,-3.1644,-3.1646,-3.1649,0,-3.1343,-3.1325,-3.1366,-3.1403,-3.1437,-3.1464,-3.1486,-3.1516,-3.1472,-3.151,-3.1564,-3.1592,-3.1647,-3.1696,-3.1732,-3.1735,-3.1686,-3.1679,-3.1701,-3.1718,-3.1727,-3.1725,-3.1409,-3.1673,-3.167,-3.1668,-3.1667,-3.1666,-3.1526,-3.158,-3.159,-3.1638,-3.1649,-3.1671,-3.172,-3.1709,-3.1752,-3.1794,-3.1765,-3.1829,-3.184,-3.1883,-3.1893,-3.1942,-3.1901,-3.1934,-3.1943,-3.1952,-3.1965,-3.1718,-3.1949,-3.1948,-3.1947,-3.1947,-3.1946,0,-3.177,-3.1772,-3.1817,-3.1849,-3.1887,-3.1835,-3.1856,-3.1892,-3.1948,-3.1963,-3.1999,-3.2061,-3.2108,-3.2098,-3.214,-3.2182,-3.216,-3.2194,-3.2192,-3.2194,-3.1999,-3.1975,-3.2211,-3.2211,-3.2211,-3.2211,-3.2211,-3.2211,-3.1902,-3.1991,-3.1975,-3.2069,-3.207,-3.2131,-3.2148,-3.2168,-3.2179,-3.2251,-3.2289,-3.2281,-3.2286,-3.2328,-3.2369,-3.2364,-3.2384,-3.2427,-3.2415,-3.2233,-3.2207,-3.2182,-3.216,-3.2431,-3.2431,-3.2606,-3.2607,-3.2608]},{"header":{"parameterUnit":"m.s-1","parameterCategory":1,"la1":30.2991,"la2":30.254,"lo1":-89.0895,"lo2":-89.0444,"dy":0.0017,"dx":0.0017,"nx":28,"ny":28,"refTime":"2026-02-06T03:00:00:Z","depth":0,"parameterNumber":3,"parameterNumberName":"V-component_of_WINDS"},"data":[0,0,0,0,0,0,0,0,0,0,0,0,0,0,0,0,0,0,0,0,0,0,0,0,0,0,0,0,0,0,0,0,0,0,0,0,0,0,0,0,0,0,0,0,0,0,0,0,0,0,0,0,0,0,0,0,0,0,-4.5611,-4.5612,0,-4.5673,-4.5673,-4.5674,-4.5605,-4.5603,-4.56,-4.5598,-4.5656,-4.566,-4.5664,0,0,0,0,0,0,0,0,0,0,0,0,0,-4.5431,-4.5434,-4.5611,-4.5612,-4.5613,-4.5672,-4.5673,-4.5674,-4.5606,-4.5602,-4.5599,-4.5596,-4.5655,-4.566,-4.5665,0,0,0,0,0,0,0,0,0,0,0,0,0,-4.5502,-4.5436,-4.5611,-4.5586,-4.5584,-4.5672,-4.5673,-4.5674,-4.5606,-4.5602,-4.5599,-4.5595,-4.5654,-4.5659,-4.5665,-4.578,0,0,-4.5684,-4.5686,0,0,0,0,0,0,0,0,-4.5498,-4.5509,-4.5589,-4.5588,-4.5586,-4.5627,-4.5631,-4.571,-4.5607,-4.5598,-4.5597,-4.5593,-4.565,-4.5656,-4.5676,-4.5783,-4.5785,-4.5684,-4.5688,-4.569,-4.5692,0,0,0,0,0,0,0,-4.5493,-4.5506,-4.5635,-4.559,-4.5589,-4.557,-4.5576,-4.5646,-4.5645,-4.5598,-4.5594,-4.5602,-4.5648,-4.567,-4.5676,-4.5786,-4.5684,-4.5689,-4.5693,-4.5695,-4.5989,-4.5993,0,0,0,0,0,0,-4.5492,-4.5502,-4.5633,-4.5637,-4.5532,-4.5577,-4.5583,-4.5618,-4.5644,-4.5644,-4.5605,-4.5599,-4.5662,-4.567,-4.5678,-4.5813,-4.569,-4.5696,-4.5699,-4.5984,-4.5989,-4.5994,0,0,0,0,0,0,-4.5488,-4.5504,-4.5631,-4.5568,-4.5583,-4.5584,-4.5624,-4.5621,-4.5643,-4.5649,-4.5648,-4.5628,-4.5659,-4.567,-4.5755,-4.5815,-4.5698,-4.5704,-4.5979,-4.5986,-4.5992,-4.6085,0,0,0,0,0,0,-4.5483,-4.5503,-4.5548,-4.557,-4.5587,-4.5709,-4.5627,-4.5625,-4.5654,-4.5646,-4.567,-4.567,-4.5657,-4.5747,-4.5761,-4.5821,-4.5709,-4.5974,-4.5982,-4.599,-4.6077,-4.6094,-4.6109,0,0,0,0,0,-4.5477,-4.5571,-4.5551,-4.5567,-4.5643,-4.5712,-4.5722,-4.5705,-4.5659,-4.5703,-4.5707,-4.567,-4.5806,-4.5756,-4.5772,-4.5834,-4.597,-4.598,-4.5989,-4.607,-4.6091,-4.6109,0,0,0,0,0,0,-4.5555,-4.5574,-4.5551,-4.5656,-4.5683,-4.57,-4.5756,-4.5728,-4.5768,-4.5758,-4.5735,-4.5741,-4.5831,-4.5841,-4.5785,-4.5945,-4.588,-4.5893,-4.5936,-4.5956,-4.5972,-4.5968,-4.5714,0,0,0,0,0,-4.5585,-4.5641,-4.5653,-4.5744,-4.5759,-4.5756,-4.5785,-4.577,-4.5797,-4.5807,-4.5817,-4.5844,-4.5892,-4.5924,-4.5969,-4.6078,-4.6081,-4.6128,-4.6144,-4.6157,-4.6169,-4.6226,-4.6247,-4.6025,-4.6025,-4.6025,0,0,-4.5646,-4.5663,-4.57,-4.576,-4.578,-4.5837,-4.5766,-4.5829,-4.5871,-4.5817,-4.5898,-4.5906,-4.5934,-4.6031,-4.6074,-4.6042,-4.6231,-4.6169,-4.618,-4.6184,-4.6238,-4.6259,-4.6277,-4.6032,-4.603,-4.6029,0,0,-4.5787,-4.5806,-4.5884,-4.5905,-4.5936,-4.5932,-4.5951,-4.5973,-4.5976,-4.6058,-4.6018,-4.6066,-4.6151,-4.6172,-4.6194,-4.6342,-4.6309,-4.6357,-4.644,-4.6496,-4.6513,-4.6529,-4.6581,-4.66,-4.6368,-4.6369,-4.6369,0,-4.5859,-4.5945,-4.5927,-4.5994,-4.6021,-4.5975,-4.6053,-4.6073,-4.6117,-4.6136,-4.6099,-4.6204,-4.6219,-4.632,-4.6356,-4.6376,-4.6395,-4.6354,-4.6513,-4.6528,-4.6542,-4.6591,-4.6611,-4.6374,-4.6374,-4.6373,-4.6373,0,-4.6032,-4.6092,-4.6151,-4.6195,-4.6229,-4.6301,-4.6291,-4.6327,-4.6309,-4.6309,-4.6392,-4.6409,-4.6456,-4.6479,-4.6461,-4.6577,-4.6556,-4.6517,-4.645,-4.6569,-4.6615,-4.6634,-4.6382,-4.638,-4.6379,-4.6377,0,0,-4.6225,-4.6258,-4.628,-4.6299,-4.6329,-4.6374,-4.6443,-4.649,-4.6521,-4.6552,-4.6609,-4.6681,-4.6644,-4.6669,-4.6653,-4.6702,-4.6818,-4.6656,-4.6656,-4.6685,-4.6945,-4.6975,-4.6998,-4.6796,-4.6799,-4.6802,-4.6943,0,-4.6366,-4.6487,-4.6472,-4.6587,-4.6642,-4.6599,-4.6659,-4.6683,-4.6684,-4.673,-4.673,-4.6782,-4.673,-4.6744,-4.6791,-4.6794,-4.6869,-4.6783,-4.6847,-4.6849,-4.6841,-4.7022,-4.7054,-4.7186,-4.6961,-4.6964,-4.6966,0,-4.6547,-4.6586,-4.6708,-4.6729,-4.6751,-4.6805,-4.6847,-4.6891,-4.6917,-4.6914,-4.6942,-4.6917,-4.6984,-4.6917,-4.7008,-4.695,-4.6975,-4.698,-4.6985,-4.699,-4.6915,-4.7032,-4.7228,-4.7248,-4.6995,-4.6992,-4.699,0,-4.6675,-4.6758,-4.6841,-4.6858,-4.6885,-4.6924,-4.6937,-4.6959,-4.6988,-4.7024,-4.7042,-4.7085,-4.7108,-4.7141,-4.7128,-4.708,-4.7222,-4.7154,-4.7221,-4.7221,-4.7253,-4.7251,-4.7456,-4.7269,-4.7269,-4.7268,-4.7268,0,-4.6835,-4.6911,-4.6899,-4.695,-4.7033,-4.7014,-4.7096,-4.7103,-4.7123,-4.7173,-4.7138,-4.7186,-4.7165,-4.7211,-4.7201,-4.7278,-4.7289,-4.7287,-4.7284,-4.7291,-4.7291,-4.7307,-4.7297,-4.7274,-4.7273,-4.7272,-4.7271,0,-4.6992,-4.6987,-4.7075,-4.7093,-4.7099,-4.716,-4.7174,-4.7221,-4.722,-4.7284,-4.7298,-4.7295,-4.7348,-4.7338,-4.7395,-4.7388,-4.7484,-4.7469,-4.7476,-4.7472,-4.754,-4.7534,-4.7762,-4.779,-4.7586,-4.7588,-4.7589,0,-4.7094,-4.7152,-4.7176,-4.7208,-4.7224,-4.7276,-4.7306,-4.7288,-4.7321,-4.7354,-4.7397,-4.7446,-4.7484,-4.757,-4.7572,-4.7615,-4.7601,-4.7677,-4.7607,-4.7612,-4.7601,-4.7598,-4.7603,-4.7692,-4.7694,-4.7696,-4.7697,0,-4.7276,-4.7271,-4.7316,-4.736,-4.7397,-4.7431,-4.7461,-4.7488,-4.7474,-4.7511,-4.7565,-4.7595,-4.7654,-4.7702,-4.7743,-4.7753,-4.7723,-4.772,-4.7737,-4.7745,-4.7747,-4.7746,-4.7514,-4.7714,-4.7713,-4.7711,-4.7711,-4.771,-4.7408,-4.7457,-4.7482,-4.7533,-4.7554,-4.7583,-4.7628,-4.7633,-4.7678,-4.7725,-4.7711,-4.7772,-4.7795,-4.7846,-4.7861,-4.7907,-4.7878,-4.7904,-4.7911,-4.7917,-4.7926,-4.7739,-4.7914,-4.7914,-4.7913,-4.7913,-4.7913,0,-4.7588,-4.7602,-4.7649,-4.7693,-4.7733,-4.7702,-4.7733,-4.7768,-4.7822,-4.7847,-4.7886,-4.7946,-4.7993,-4.7999,-4.8044,-4.8079,-4.8066,-4.8091,-4.8088,-4.8091,-4.7949,-4.7929,-4.8101,-4.8101,-4.8101,-4.8101,-4.8101,-4.8101,-4.7686,-4.7767,-4.7765,-4.7855,-4.7867,-4.7928,-4.7948,-4.7974,-4.7993,-4.8063,-4.8103,-4.8107,-4.8123,-4.8168,-4.8209,-4.821,-4.8227,-4.8258,-4.8253,-4.812,-4.8101,-4.8083,-4.8065,-4.8262,-4.8262,-4.8391,-4.8392,-4.8393]}]]